WA5LNL-2 Weather Reports


Display with metric or nautical units.
time (UTC)temp
F
wind
direction
speed
MPH
gust
MPH
rain 1hr
in
rain 24hr
in
rain mn
in
humidity
%
barometer
mb
20210921174626 90 76 0.0 4.0 0.00 0.00 0.00 37 1016.0
20210921173515 90 62 0.0 4.0 0.00 0.00 0.00 39 1016.0
20210921172410 89 338 3.0 6.0 0.00 0.00 0.00 41 1016.0
20210921171259 88 56 0.0 3.0 0.00 0.00 0.00 45 1016.0
20210921170139 87 58 0.0 4.0 0.00 0.00 0.00 47 1016.0
20210921163938 86 265 4.0 4.0 0.00 0.00 0.00 53 1016.0
20210921162837 85 279 0.0 4.0 0.00 0.00 0.00 54 1016.0
20210921161727 84 222 0.0 0.0 0.00 0.00 0.00 55 1016.0
20210921160617 83 255 0.0 0.0 0.00 0.00 0.00 60 1016.0
20210921155516 83 255 0.0 5.0 0.00 0.00 0.00 61 1016.0
20210921154415 82 259 0.0 5.0 0.00 0.00 0.00 61 1016.0
20210921153314 82 263 0.0 0.0 0.00 0.00 0.00 61 1016.0
20210921151113 82 205 0.0 0.0 0.00 0.00 0.00 64 1016.0
20210921144912 81 207 0.0 0.0 0.00 0.00 0.00 67 1015.0
20210921143811 80 206 0.0 4.0 0.00 0.00 0.00 67 1015.0
20210921142711 80 210 0.0 4.0 0.00 0.00 0.00 68 1015.0
20210921141610 79 189 0.0 4.0 0.00 0.00 0.00 70 1015.0
20210921140509 79 256 3.0 7.0 0.00 0.00 0.00 70 1015.0
20210921134307 78 200 0.0 0.0 0.00 0.00 0.00 75 1015.0
20210921133207 78 176 0.0 0.0 0.00 0.00 0.00 77 1015.0
20210921132104 77 181 0.0 0.0 0.00 0.00 0.00 77 1015.0
20210921131004 77 181 0.0 0.0 0.00 0.00 0.00 76 1014.0
20210921125903 76 179 0.0 0.0 0.00 0.00 0.00 76 1014.0
20210921124802 76 179 0.0 0.0 0.00 0.00 0.00 75 1014.0